sat.trackr.live / text

‹ back to catalog

STARLINK-30973

NORAD 58713 · 2024-002J

PAYLOAD ACTIVE UNKNOWN

§ Identity

Operator
Country
US
Launch date
2024-01-03
Launch site
AFWTR
Launch vehicle
Mass (kg)
RCS (m²)

Purposes: comms

External: N2YO · Heavens-Above · Gunter

§ Orbital elements

Epoch: 2026-09-20T13:46:07.545216Z

Period
93.85 min
Inclination
53.1601°
Eccentricity
0.0001228
Mean motion
15.34390793 rev/d
Perigee alt
461.9 km
Apogee alt
463.6 km
Semi-major
6,840.9 km
B*
4.4871e-5
RAAN
43.2551°
Arg perigee
99.6982°
Mean anomaly
260.4159°
Rev number
15,187

§ Raw data

STARLINK-309731 58713U 24002J   26263.57369844  .00001140  00000+0  44871-4 0  99902 58713  53.1601  43.2551 0001228  99.6982 260.4159 15.34390793151871

JSON: /api/v1/satellites/58713 · /tle

For live sub-satellite position, see the globe view (requires WebGL).

§ Visibility from observer

Set your observer location to see the next 7 days of passes ≥ 10°. The values pass through the URL so the page stays shareable.

No JS? Fill the form by hand. The geolocation button needs JavaScript.